Location: Newark
(52.2090°N, 4.1550°W)
Time: 19:48:11
(UTC+00:00)

Explorer 7 - Pass Details

Date: 21 September 2019
Orbit: 485 x 680 km, 50.3° (Epoch: 20 October)

Event Time Altitude Azimuth Distance (km) Brightness Sun altitude
Exits shadow 02:02:44 13° 101° (ESE) 1,915 9.8 -31.9°
Drops below altitude 10° 02:03:15 10° 101° (E) 2,112 10.0 -31.8°
Sets 02:05:39 0° 99° (E) 3,033 10.9 -31.6°
